Location: Normandy Village
(37.8755°N, 122.2655°W)
Time: 16:27:18
(UTC+00:00)

Cosmos 2315 Rocket - Pass Details

Date: 22 September 2019
Orbit: 965 x 1003 km, 82.9° (Epoch: 14 October)

Event Time Altitude Azimuth Distance (km) Brightness Sun altitude
Rises 12:59:40 0° 352° (N) 3,663 7.0 -12.0°
Reaches altitude 10° 13:02:10 10° 353° (N) 2,714 6.4 -11.5°
Maximum altitude 13:08:24 87° 265° (W) 977 4.0 -10.3°
Drops below altitude 10° 13:14:37 10° 176° (S) 2,715 6.3 -9.1°
Sets 13:17:08 0° 176° (S) 3,664 7.0 -8.6°
